SCP
0 0 0 0 0 0 0 0 0 0 0 0 0 1 1 1 0 0 0 0 0 1 1 1 1 2 2 3 3 2 2 2 1 1 1 1 1 2 2 1 1 1 1 1
0 0 0 0 0 0 0 0 0 0 0 0 0 1 1 1 1 0 0 0 0 1 1 1 1 2 2 3 3 2 2 2 1 1 1 1 1 1 2 1 1 1 1 1
0 0 0 0 0 0 0 0 0 0 0 0 0 1 1 1 0 0 0 0 0 0 1 1 1 2 2 3 2 2 2 2 1 1 1 1 2 2 2 2 1 1 1 1
0 0 0 0 0 0 0 0 0 0 0 0 0 1 1 1 0 0 0 0 0 0 0 1 1 2 2 2 2 2 2 2 2 1 1 2 2 3 3 2 2 1 1 1
0 0 0 0 0 0 0 0 0 0 0 0 0 0 0 0 0 0 0 0 0 0 0 1 1 2 2 2 2 2 2 2 2 1 1 2 2 3 4 3 3 2 1 1
0 0 0 0 0 0 0 0 0 0 0 0 0 0 0 0 0 0 0 0 0 0 0 1 1 2 2 2 2 2 2 2 2 2 2 2 2 3 4 5 4 3 1 1
0 0 0 0 0 0 0 0 0 0 0 0 0 0 0 0 0 0 0 0 0 0 1 1 1 2 3 3 2 2 3 3 3 2 2 2 2 3 4 6 6 4 2 1
0 0 0 0 0 0 0 0 0 0 0 0 0 0 0 0 0 0 0 0 0 1 1 1 2 3 3 3 3 3 3 3 3 2 2 2 2 2 3 6 7 5 2 1
0 0 0 0 0 0 0 0 0 0 0 0 0 0 0 0 0 0 0 0 0 1 1 2 2 3 3 3 2 3 3 3 2 2 1 1 1 2 3 6 7 5 2 0
0 0 0 0 0 0 0 0 0 0 0 0 0 0 0 0 0 0 0 0 1 1 1 2 2 2 2 2 2 2 2 2 2 1 1 1 1 2 4 6 6 3 1 0
0 0 0 0 0 0 0 0 0 0 0 0 0 0 0 0 0 0 0 1 1 1 2 2 2 2 2 2 2 2 2 2 2 2 1 1 2 2 3 4 3 1 0 0
0 0 0 0 0 0 0 0 0 0 0 0 0 0 0 0 0 1 1 1 1 2 2 2 2 1 1 1 2 2 2 2 2 2 1 1 1 2 2 2 1 1 0 0
0 0 0 0 0 0 0 0 0 0 0 0 0 0 0 0 1 1 1 1 1 2 2 2 1 1 1 1 2 2 2 2 3 2 2 1 1 1 1 1 1 1 0 0
0 0 0 0 0 0 0 0 0 0 0 0 0 0 0 0 1 1 1 0 1 1 1 1 1 1 1 1 2 2 2 2 2 2 1 1 1 1 1 1 1 1 0 0
0 0 0 0 0 0 0 0 0 0 0 0 0 0 0 0 1 1 0 0 1 1 1 1 0 1 1 1 1 1 1 1 1 1 1 1 1 1 1 1 1 1 1 0
0 0 0 0 0 0 0 0 0 0 0 0 0 0 1 1 0 0 0 0 0 1 1 1 0 1 1 1 1 1 1 1 1 1 1 1 1 1 1 1 1 1 1 0
0 0 0 0 0 0 0 0 0 0 0 0 0 0 0 0 0 0 0 0 0 0 1 0 0 1 1 1 1 1 1 1 1 1 1 1 1 1 1 1 1 1 1 0
0 0 0 0 0 0 0 0 0 0 0 0 0 0 0 0 0 0 0 0 0 0 0 0 0 0 1 1 1 1 1 1 1 1 1 1 1 1 1 1 1 1 1 1
0 0 0 0 0 0 0 0 0 0 0 0 0 0 0 0 0 0 0 0 0 0 0 0 0 0 1 1 1 1 1 1 1 1 1 1 1 1 1 1 1 1 1 1
0 0 0 0 0 0 0 0 0 0 0 0 0 0 0 0 0 0 0 0 0 0 0 0 0 0 0 1 1 1 1 1 1 1 1 1 1 1 1 1 1 1 1 1
0 0 0 0 0 0 0 0 0 0 0 0 0 0 0 0 0 0 0 0 0 0 0 0 0 0 0 1 1 1 1 1 1 1 1 2 2 2 2 2 2 2 2 2
0 0 0 0 0 0 0 0 0 0 0 0 0 0 0 0 0 0 0 0 0 0 0 0 0 0 0 0 1 1 1 1 1 1 1 2 2 2 2 2 2 2 1 1
0 0 0 0 0 0 0 0 0 0 0 0 0 0 0 0 0 0 0 0 0 0 0 0 0 0 0 0 1 1 1 1 2 2 2 2 2 2 2 2 1 1 1 1
0 0 0 0 0 0 0 0 0 0 0 0 0 0 0 0 0 0 0 0 0 0 0 0 0 0 0 0 0 0 1 1 1 2 2 2 1 1 1 1 1 1 1 1
0 0 0 0 0 0 0 0 0 0 0 0 0 0 0 0 0 0 0 0 0 0 0 0 0 0 0 0 0 0 0 0 1 1 1 1 1 1 0 0 0 0 0 0
0 0 0 0 0 0 0 0 0 0 0 0 0 0 0 0 0 0 0 0 0 0 0 0 0 0 0 0 0 0 0 0 0 1 1 1 1 0 0 0 0 0 0 0
Wind_Speed
8 6 5 6 6 6 6 6 4 2 3 4 3 3 4 4 3 3 3 3 4 4 4 5 5 4 3 2 2 3 3 3 3 2 2 2 2 2 2 2 2 2 2 2
6 6 6 6 6 6 6 6 4 2 2 3 3 3 2 4 4 2 2 2 3 4 4 4 5 4 3 2 1 2 2 3 3 2 2 2 2 2 2 1 2 2 2 2
6 4 5 6 6 6 7 5 4 3 3 5 4 4 4 3 3 3 2 2 2 3 5 4 4 3 2 1 1 1 2 2 3 2 2 2 2 1 2 1 1 1 1 1
5 5 6 5 5 7 6 4 5 5 5 4 6 3 3 5 4 5 4 3 2 2 3 5 4 4 3 2 1 1 2 2 2 3 2 2 2 2 1 1 1 1 1 1
4 3 5 6 5 6 5 5 7 8 7 8 8 5 3 4 4 4 4 4 3 3 2 3 4 4 3 2 2 2 2 2 2 2 1 1 2 1 1 1 2 1 1 1
4 4 4 5 5 6 5 7 8 8 5 7 9 6 1 2 2 2 3 4 3 3 3 2 3 4 3 3 2 1 2 2 1 1 1 2 2 2 3 2 2 1 1 0
6 5 4 3 4 4 6 5 3 4 5 5 4 3 2 3 4 4 3 2 3 3 3 3 4 4 3 3 2 1 2 2 1 1 1 1 1 1 2 2 2 2 1 1
6 5 4 3 5 5 7 6 4 3 4 3 3 2 3 4 5 5 4 4 4 4 3 3 4 4 3 3 2 1 1 1 1 1 1 1 1 1 1 1 1 2 1 1
4 1 1 3 4 6 6 5 5 7 8 6 3 4 5 5 5 4 4 4 4 4 4 4 4 4 3 2 2 1 1 2 1 1 1 1 1 1 0 1 1 1 1 1
6 4 2 2 4 6 6 6 3 4 4 5 3 2 2 5 4 4 4 4 5 4 4 4 4 3 3 2 1 1 2 2 1 1 1 1 1 1 1 1 1 1 1 2
7 6 4 4 5 5 6 6 5 5 5 4 3 0 3 4 4 4 4 5 5 5 4 3 3 3 3 2 2 2 1 2 2 1 1 1 1 1 1 1 0 0 1 1
4 5 6 6 4 3 4 6 5 4 5 5 4 0 4 5 5 5 5 5 5 5 4 3 3 3 3 2 2 1 1 1 1 1 1 1 1 1 1 1 0 0 0 1
5 5 6 4 4 4 5 6 7 6 5 5 4 1 3 4 5 5 4 4 5 4 4 4 3 2 2 2 2 1 1 1 1 1 1 1 1 1 0 0 1 1 1 1
4 6 7 6 5 3 5 6 6 5 5 6 5 2 1 2 3 4 4 4 4 4 4 4 3 3 2 2 2 1 1 1 1 1 1 1 1 1 0 1 1 1 1 1
4 7 9 9 7 7 6 5 6 6 7 6 5 2 1 2 2 3 4 3 4 4 4 4 3 3 2 1 1 1 1 1 1 1 1 1 1 1 2 2 2 2 2 2
4 7 9 10 9 7 8 8 8 8 8 7 5 3 2 3 3 3 3 3 4 3 3 3 4 3 3 2 2 2 2 1 1 1 1 1 1 1 1 2 2 2 2 2
4 7 8 8 7 6 8 6 6 5 4 4 4 2 2 3 4 3 3 3 3 4 4 4 3 3 3 3 2 1 1 2 2 2 2 2 2 2 2 2 2 2 1 2
7 7 5 6 6 8 1 2 2 2 2 1 1 1 1 2 3 3 4 4 4 4 5 5 4 4 4 3 2 2 2 2 2 2 2 2 2 1 1 1 1 1 1 1
6 6 5 5 6 6 2 1 1 2 3 1 1 1 1 2 3 3 4 4 3 3 3 3 4 3 4 4 3 3 2 2 3 3 3 2 2 1 1 1 1 1 1 1
5 5 5 5 5 4 1 2 3 2 2 2 1 1 1 1 0 0 2 3 3 3 3 3 3 3 4 4 3 3 3 3 3 2 2 2 1 1 1 1 1 1 1 1
3 4 6 7 6 2 2 1 2 2 0 3 3 2 1 0 1 1 2 3 3 3 3 3 3 3 3 3 3 3 3 2 2 2 2 2 2 2 2 1 1 1 1 1
3 3 4 4 5 3 2 1 1 2 3 4 4 4 3 3 3 3 3 2 2 3 3 3 3 3 3 3 3 3 3 3 2 2 2 2 2 2 2 2 2 1 1 1
2 1 2 1 1 1 1 1 3 4 3 4 3 3 2 2 2 2 2 2 2 2 2 2 2 2 3 3 3 3 3 3 2 2 2 2 2 2 2 2 2 2 1 1
2 2 3 2 1 2 2 2 3 3 3 3 3 3 2 2 2 2 2 2 2 2 2 2 2 2 2 3 3 3 3 2 2 2 2 2 2 2 2 2 2 2 1 1
3 3 4 4 3 2 2 3 3 3 2 2 2 2 2 2 2 2 1 1 1 2 2 2 2 2 2 2 3 3 3 3 2 2 1 1 1 1 2 2 2 2 2 2
4 5 4 3 2 2 3 3 3 2 2 2 2 2 2 2 2 2 1 1 1 2 2 2 2 2 2 2 3 2 3 2 2 1 1 1 1 1 1 1 2 3 2 3
Wind_Direction
212 225 229 232 236 250 261 266 259 193 169 190 211 213 172 171 179 170 158 144 144 135 123 119 111 103 102 80 89 105 117 124 116 106 107 108 105 89 74 72 75 90 89 87
217 232 248 247 243 246 264 277 281 235 203 230 221 236 193 174 178 160 141 136 136 135 126 122 119 113 104 108 92 104 113 119 115 119 120 111 101 95 90 70 57 60 69 77
229 249 241 240 240 248 249 251 262 267 262 244 241 241 206 181 175 166 165 162 154 151 147 138 127 121 108 108 157 122 101 97 102 99 98 96 91 91 83 76 57 44 44 62
244 258 258 250 248 254 253 257 263 264 268 254 238 248 199 167 176 179 177 171 156 153 144 143 141 134 134 121 112 96 101 102 101 102 104 143 139 133 140 141 135 100 51 62
241 256 271 264 264 265 266 276 261 251 253 266 253 249 207 164 178 172 166 159 145 141 130 136 144 145 139 125 111 118 109 101 88 109 130 136 130 140 137 133 126 117 77 58
255 256 265 277 277 273 269 268 259 244 241 250 246 238 196 160 158 142 125 128 137 138 132 127 122 119 117 103 80 83 104 87 84 85 112 133 147 169 156 152 148 152 136 111
224 231 234 265 271 253 255 255 257 226 218 235 234 216 131 96 90 93 91 95 105 113 121 120 114 118 113 107 89 58 90 86 79 74 67 76 138 175 165 158 162 150 140 126
241 222 202 224 254 265 249 241 251 270 259 266 242 187 122 107 91 91 96 86 86 98 98 97 102 102 105 113 123 113 116 117 93 98 88 81 50 41 93 139 146 145 145 153
289 242 182 219 252 271 269 248 256 270 278 275 231 152 139 112 105 99 90 85 81 87 90 89 93 99 100 106 112 127 119 127 134 138 106 102 90 48 13 163 145 143 151 147
289 279 236 246 244 235 265 294 278 259 272 271 263 237 160 137 126 118 96 79 68 69 89 96 97 97 100 106 116 108 95 101 103 105 106 112 126 123 69 67 74 118 162 154
276 269 238 214 222 236 216 241 256 268 262 266 265 27 50 97 112 104 93 82 76 67 68 87 95 94 99 103 99 85 77 74 71 71 66 105 113 111 115 123 132 156 182 163
275 274 257 239 219 227 251 251 253 257 268 271 273 117 69 73 78 80 78 78 71 70 69 72 89 95 94 87 92 93 81 72 82 78 66 96 109 107 125 141 102 43 58 119
320 275 266 233 212 208 239 257 267 273 275 269 264 172 104 91 87 80 74 78 74 66 64 61 65 75 94 97 92 86 83 74 75 77 68 56 71 66 59 95 92 69 14 1
308 274 272 274 301 279 246 255 263 262 262 269 267 245 120 68 70 80 80 73 75 63 60 56 54 43 51 83 97 93 99 118 107 88 84 52 32 21 28 60 84 78 26 355
273 274 279 283 287 291 289 269 256 252 257 265 279 277 349 63 69 72 74 65 62 60 48 40 31 30 32 52 85 93 79 77 98 106 88 42 36 21 19 47 60 53 28 7
261 273 280 279 271 266 274 273 257 248 253 259 269 290 9 18 46 61 66 57 44 45 40 33 24 20 15 19 40 57 51 44 69 92 92 74 54 49 40 33 57 52 25 12
253 270 280 275 273 269 259 265 256 244 248 257 264 282 356 11 37 43 50 52 41 28 23 24 21 16 6 4 7 62 73 51 38 52 61 66 56 43 30 16 34 44 24 28
264 274 277 275 267 251 235 37 345 280 292 308 317 6 0 30 59 59 58 57 41 29 23 16 9 10 7 3 9 44 63 65 45 42 50 52 55 52 37 14 359 8 31 32
257 261 267 267 263 260 230 338 326 278 278 324 317 14 39 73 89 59 49 58 49 33 26 16 358 360 8 9 16 34 45 51 41 34 46 40 31 31 35 17 344 7 31 3
243 254 259 268 265 261 6 47 346 296 236 36 10 359 58 102 224 74 52 52 47 38 29 22 4 6 16 11 22 40 45 50 37 31 44 39 23 26 27 2 348 8 1 330
223 234 240 256 260 262 9 18 312 252 9 38 16 18 45 22 27 78 66 61 54 41 32 32 22 17 17 7 18 33 37 40 33 28 39 35 28 30 27 16 24 17 353 331
238 247 243 248 246 250 52 1 336 7 30 31 27 25 43 48 54 82 76 65 62 48 39 41 33 24 19 14 24 33 22 20 33 35 40 43 35 24 18 28 25 18 9 353
215 270 283 262 248 76 122 28 3 6 6 19 23 28 49 41 37 69 74 60 54 41 39 42 42 32 30 25 28 31 11 9 29 37 30 35 40 34 29 31 37 33 30 15
261 289 269 278 290 343 0 10 11 13 4 18 33 34 33 38 46 55 64 51 45 32 33 32 31 28 28 31 30 16 1 4 32 37 31 26 34 36 30 22 28 35 28 13
295 292 275 269 286 318 337 355 5 5 10 21 31 37 31 37 36 39 35 32 31 27 35 35 30 21 27 32 33 22 9 15 28 27 27 19 22 35 35 30 32 41 47 46
265 270 264 263 275 293 312 353 7 0 5 22 27 26 38 48 39 27 19 30 29 29 38 38 30 21 27 31 26 23 15 17 17 10 11 14 28 32 26 22 20 33 39 39